Flag for Canada Weather past 2 weeks in Grand Falls-Windsor, Newfoundland and Labrador, Canada

Now
75 °F

Broken clouds.


Feels Like: 75 °F
Forecast: 63 / 74 °F
Wind: 12 mph from Northwest

Location: Gander Int. Airport

Current Time: Jul 25, 2014 at 4:29:51 PM

Latest Report: Jul 25, 2014 at 3:30 PM


Visibility: 15 mi

Pressure: 29.73 "Hg

Humidity: 83%

Dew point: 70 °F

Location of Grand Falls-WindsorLocation

Historic Weather in Grand Falls-Windsor — Graph

°F

Grand Falls-Windsor temperature yesterday

Maximum temperature yesterday: 82 °F (at 2:30 PM)
Minimum temperature yesterday: 63 °F (at 5:30 AM)
Average temperature yesterday: 72 °F

Past Weeks' High & Low Weather Summary

 TemperatureHumidityPressure
High86 °F (Jul 10, 3:30 PM)100% (Jul 11, 3:30 AM)30.24 "Hg (Jul 11, 3:30 AM)
Low52 °F (Jul 20, 4:30 AM)24% (Jul 21, 3:30 PM)29.67 "Hg (Jul 23, 6:30 PM)
Average71 °F66%29.96 "Hg
* Reported Jul 10 2:30 PM — Jul 25 2:30 PM, Grand Falls-Windsor, Weather by CustomWeather, © 2014

Note: Actual official high and low records may vary slightly from our data, if they occured in-between our weather recording intervals... More about our weather records

Advertising

Grand Falls-Windsor weather history for previous 24 hours

 ConditionsComfort  
Time TempWeatherWind HumidityBarometerVisibility
2:30 PM
Jul 25
75 °FPartly sunny.14 mph78%29.73 "Hg15 mi
1:30 PM77 °FPartly sunny.9 mph69%29.72 "Hg20 mi
12:30 PM77 °FPartly sunny.14 mph69%29.73 "Hg20 mi
11:30 AM73 °FBroken clouds.17 mph78%29.75 "Hg20 mi
10:30 AM72 °FBroken clouds.16 mph78%29.77 "Hg20 mi
9:30 AM72 °FBroken clouds.12 mph78%29.78 "Hg20 mi
8:30 AM68 °FMostly cloudy.15 mph88%29.78 "Hg20 mi
7:30 AM68 °FMostly cloudy.13 mph94%29.78 "Hg15 mi
6:30 AM68 °FSprinkles. Mostly cloudy.12 mph88%29.77 "Hg15 mi
5:30 AM68 °FPassing clouds.13 mph88%29.79 "Hg15 mi
4:30 AM68 °FPassing clouds.13 mph88%29.80 "Hg15 mi
3:30 AM68 °FMostly cloudy.10 mph88%29.79 "Hg12 mi
2:30 AM66 °FLow clouds.12 mph94%29.81 "Hg12 mi
1:30 AM66 °FMostly cloudy.13 mph94%29.83 "Hg12 mi
12:30 AM68 °FMostly cloudy.14 mph88%29.82 "Hg12 mi
11:30 PM
Jul 24
68 °FPassing clouds.13 mph88%29.82 "Hg12 mi
10:30 PM68 °FPassing clouds.16 mph88%29.82 "Hg12 mi
10:16 PM68 °FPartly cloudy.16 mph83%29.82 "Hg12 mi
9:30 PM68 °FPassing clouds.18 mph88%29.81 "Hg12 mi
8:30 PM72 °FBroken clouds.14 mph78%29.80 "Hg12 mi
7:30 PM73 °FPartly sunny.16 mph78%29.79 "Hg12 mi
6:30 PM77 °FScattered clouds.16 mph69%29.76 "Hg12 mi
5:30 PM77 °FBroken clouds.17 mph69%29.76 "Hg15 mi
4:30 PM81 °FScattered clouds.20 mph62%29.76 "Hg15 mi
Weather by CustomWeather, © 2014

See weather overviewHow to use our weather pages